5NAAT VYMD-VECC

Flight info

Callsign 5NAAT
Flight time N/A
Altitude 10000
Route MIA W17 MY DCT CTG B465 SUMAG SUMAG2A
Aircraft BE36/L-BDFGLORY/S

Departure

Time 2026-04-15 09:31
Airport Mandalay International Airport (VYMD)

Arrival

Time N/A
Airport Netaji Subhash Chandra Bose International Airport (VECC)
Time Latitude Longitude Altitude Speed Heading
2026-04-15 09:29 21.69601 95.97664 302 ft 1 kts 86°
2026-04-15 09:29 21.69605 95.97686 301 ft 6 kts 77°
2026-04-15 09:30 21.69653 95.97711 303 ft 11 kts 23°
2026-04-15 09:30 21.69779 95.97768 304 ft 33 kts 22°
2026-04-15 09:30 21.70145 95.97731 307 ft 79 kts 349°
2026-04-15 09:30 21.70777 95.97628 475 ft 100 kts 346°
2026-04-15 09:31 21.71380 95.97303 749 ft 105 kts 301°
2026-04-15 09:31 21.71533 95.96500 937 ft 119 kts 271°
2026-04-15 09:31 21.71531 95.95555 1139 ft 130 kts 266°
2026-04-15 09:31 21.71594 95.94592 1469 ft 127 kts 278°
2026-04-15 09:32 21.71782 95.93679 1759 ft 127 kts 277°
2026-04-15 09:32 21.71860 95.92709 1959 ft 133 kts 271°
2026-04-15 09:32 21.72129 95.91741 2185 ft 140 kts 296°
2026-04-15 09:32 21.72637 95.90849 2409 ft 139 kts 299°
2026-04-15 09:33 21.73152 95.89979 2643 ft 141 kts 299°
2026-04-15 09:33 21.73694 95.89086 2883 ft 141 kts 299°
2026-04-15 09:33 21.74226 95.88215 3114 ft 141 kts 300°
2026-04-15 09:33 21.74765 95.87330 3349 ft 142 kts 300°
2026-04-15 09:34 21.75303 95.86447 3580 ft 140 kts 300°
2026-04-15 09:34 21.75835 95.85575 3811 ft 139 kts 300°
2026-04-15 09:34 21.76363 95.84710 4047 ft 138 kts 300°
2026-04-15 09:34 21.76888 95.83848 4289 ft 138 kts 300°
2026-04-15 09:35 21.77416 95.82981 4534 ft 138 kts 300°
2026-04-15 09:35 21.77942 95.82118 4764 ft 137 kts 300°
2026-04-15 09:35 21.78465 95.81261 4998 ft 137 kts 300°
2026-04-15 09:35 21.78974 95.80425 5224 ft 133 kts 300°
2026-04-15 09:36 21.79477 95.79599 5461 ft 131 kts 299°
2026-04-15 09:36 21.79972 95.78785 5694 ft 128 kts 299°
2026-04-15 09:36 21.80453 95.77993 5925 ft 125 kts 299°
2026-04-15 09:36 21.80933 95.77203 6085 ft 127 kts 299°
2026-04-15 09:37 21.81418 95.76408 6247 ft 127 kts 299°
2026-04-15 09:37 21.81902 95.75614 6406 ft 127 kts 299°
2026-04-15 09:37 21.82382 95.74822 6569 ft 126 kts 299°
2026-04-15 09:37 21.82860 95.74038 6726 ft 124 kts 298°
2026-04-15 09:38 21.83327 95.73270 6885 ft 121 kts 299°
2026-04-15 09:38 21.83784 95.72519 6991 ft 124 kts 299°
2026-04-15 09:38 21.84273 95.71714 7000 ft 133 kts 299°
2026-04-15 09:38 21.84792 95.70861 7009 ft 139 kts 300°
2026-04-15 09:39 21.85333 95.69972 7007 ft 143 kts 300°
2026-04-15 09:39 21.85895 95.69048 7004 ft 151 kts 300°
2026-04-15 09:39 21.86482 95.68084 7003 ft 156 kts 300°
2026-04-15 09:39 21.87084 95.67095 7000 ft 159 kts 300°
2026-04-15 09:40 21.87686 95.66104 7002 ft 161 kts 300°
2026-04-15 09:40 21.88304 95.65088 7002 ft 162 kts 300°
2026-04-15 09:40 21.88920 95.64073 7000 ft 162 kts 300°
2026-04-15 09:40 21.89538 95.63055 7001 ft 162 kts 300°
2026-04-15 09:41 21.90157 95.62036 7001 ft 162 kts 300°
2026-04-15 09:41 21.90773 95.61021 7002 ft 162 kts 300°
2026-04-15 09:41 21.91390 95.60003 7004 ft 163 kts 300°
2026-04-15 09:41 21.92002 95.58995 6998 ft 163 kts 300°
2026-04-15 09:42 21.92623 95.57970 6998 ft 162 kts 300°
2026-04-15 09:42 21.93240 95.56955 6998 ft 162 kts 300°
2026-04-15 09:42 21.93858 95.55934 7002 ft 163 kts 300°
2026-04-15 09:42 21.94482 95.54905 6998 ft 164 kts 300°
2026-04-15 09:43 21.95108 95.53872 7001 ft 164 kts 300°
2026-04-15 09:43 21.95733 95.52841 7000 ft 164 kts 300°
2026-04-15 09:43 21.96359 95.51809 7001 ft 164 kts 300°
2026-04-15 09:43 21.96985 95.50774 6997 ft 164 kts 300°
2026-04-15 09:44 21.97597 95.49760 6997 ft 163 kts 301°
2026-04-15 09:44 21.98215 95.48741 6998 ft 162 kts 300°
2026-04-15 09:44 21.98837 95.47715 6996 ft 163 kts 300°
2026-04-15 09:44 21.99457 95.46691 6995 ft 163 kts 300°
2026-04-15 09:45 22.00071 95.45680 7000 ft 163 kts 300°
2026-04-15 09:45 22.00693 95.44648 6999 ft 164 kts 300°
2026-04-15 09:45 22.01319 95.43612 7000 ft 165 kts 300°
2026-04-15 09:45 22.01943 95.42581 6999 ft 164 kts 300°
2026-04-15 09:46 22.02571 95.41544 6998 ft 166 kts 300°
2026-04-15 09:46 22.03200 95.40500 6996 ft 165 kts 300°
2026-04-15 09:46 22.03829 95.39464 6997 ft 165 kts 301°
2026-04-15 09:46 22.04454 95.38427 6997 ft 165 kts 301°
2026-04-15 09:47 22.05076 95.37394 6992 ft 164 kts 300°
2026-04-15 09:47 22.05690 95.36381 6996 ft 163 kts 301°
2026-04-15 09:47 22.06312 95.35355 6995 ft 163 kts 301°
2026-04-15 09:47 22.06931 95.34327 6992 ft 163 kts 301°
2026-04-15 09:48 22.07551 95.33302 6992 ft 163 kts 301°
2026-04-15 09:48 22.08167 95.32280 6997 ft 162 kts 300°
2026-04-15 09:48 22.08787 95.31250 6996 ft 164 kts 301°
2026-04-15 09:48 22.09409 95.30224 6997 ft 163 kts 301°
2026-04-15 09:49 22.10022 95.29206 7002 ft 164 kts 300°
2026-04-15 09:49 22.10644 95.28174 7000 ft 165 kts 301°
2026-04-15 09:49 22.11270 95.27136 6998 ft 165 kts 300°
2026-04-15 09:49 22.11896 95.26099 6999 ft 164 kts 301°
2026-04-15 09:50 22.12519 95.25064 7000 ft 165 kts 302°
2026-04-15 09:50 22.13140 95.24037 6998 ft 164 kts 301°
2026-04-15 09:50 22.13762 95.23004 6997 ft 164 kts 301°
2026-04-15 09:50 22.14376 95.21982 6998 ft 164 kts 301°
2026-04-15 09:51 22.15004 95.20940 6999 ft 164 kts 301°
2026-04-15 09:51 22.15627 95.19908 6997 ft 164 kts 301°
2026-04-15 09:51 22.16249 95.18873 6999 ft 164 kts 301°
2026-04-15 09:51 22.16871 95.17838 6997 ft 164 kts 301°
2026-04-15 09:52 22.17494 95.16806 6999 ft 163 kts 300°
2026-04-15 09:52 22.18110 95.15781 7003 ft 163 kts 301°
2026-04-15 09:52 22.18722 95.14765 6996 ft 162 kts 301°
2026-04-15 09:52 22.19335 95.13743 6998 ft 163 kts 301°
2026-04-15 09:53 22.19956 95.12713 6995 ft 163 kts 301°
2026-04-15 09:53 22.20569 95.11695 6991 ft 161 kts 301°
2026-04-15 09:53 22.21179 95.10678 6994 ft 161 kts 301°
2026-04-15 09:53 22.21746 95.09633 6995 ft 161 kts 290°
2026-04-15 09:54 22.21938 95.08454 6994 ft 160 kts 270°
2026-04-15 09:54 22.21953 95.07251 6993 ft 160 kts 272°
2026-04-15 09:54 22.21986 95.06068 6995 ft 160 kts 271°
2026-04-15 09:54 22.22012 95.04867 6990 ft 160 kts 271°
2026-04-15 09:55 22.22036 95.03661 6996 ft 159 kts 271°
2026-04-15 09:55 22.22059 95.02464 6998 ft 159 kts 271°
2026-04-15 09:55 22.22088 95.01261 6999 ft 161 kts 271°
2026-04-15 09:55 22.22113 95.00070 6996 ft 161 kts 271°
2026-04-15 09:56 22.22141 94.98841 6997 ft 161 kts 271°
2026-04-15 09:56 22.22165 94.97649 6997 ft 162 kts 270°
2026-04-15 09:56 22.22214 94.95218 7002 ft 162 kts 270°
2026-04-15 09:57 22.22241 94.93998 7001 ft 162 kts 270°
2026-04-15 09:57 22.22267 94.92787 6999 ft 162 kts 270°
2026-04-15 09:57 22.22292 94.91562 7001 ft 163 kts 270°
2026-04-15 09:57 22.22317 94.90338 6998 ft 162 kts 270°
2026-04-15 09:58 22.22342 94.89124 6998 ft 162 kts 270°
2026-04-15 09:58 22.22367 94.87923 6999 ft 161 kts 270°
2026-04-15 09:58 22.22393 94.86716 6999 ft 161 kts 270°
2026-04-15 09:58 22.22417 94.85509 7001 ft 161 kts 269°
2026-04-15 09:59 22.22440 94.84292 7007 ft 162 kts 270°
2026-04-15 09:59 22.22466 94.83074 7009 ft 162 kts 270°
2026-04-15 09:59 22.22490 94.81858 7011 ft 162 kts 270°
2026-04-15 09:59 22.22514 94.80644 7009 ft 161 kts 270°
2026-04-15 10:00 22.22540 94.79436 7011 ft 161 kts 270°
2026-04-15 10:00 22.22563 94.78226 7009 ft 161 kts 270°
2026-04-15 10:00 22.22587 94.77015 7009 ft 161 kts 269°
2026-04-15 10:00 22.22611 94.75827 7015 ft 160 kts 269°
2026-04-15 10:01 22.22635 94.74618 7012 ft 161 kts 269°
2026-04-15 10:01 22.22657 94.73424 7014 ft 161 kts 269°
2026-04-15 10:01 22.22682 94.72202 7011 ft 160 kts 269°
2026-04-15 10:01 22.22705 94.71011 7011 ft 160 kts 269°
2026-04-15 10:02 22.22728 94.69811 7014 ft 161 kts 269°
2026-04-15 10:02 22.22753 94.68605 7015 ft 161 kts 269°
2026-04-15 10:02 22.22775 94.67387 7022 ft 161 kts 268°
2026-04-15 10:02 22.22797 94.66176 7023 ft 161 kts 269°
2026-04-15 10:03 22.22822 94.64969 7024 ft 161 kts 269°
2026-04-15 10:03 22.22844 94.63767 7024 ft 162 kts 269°
2026-04-15 10:03 22.22866 94.62558 7023 ft 162 kts 269°
2026-04-15 10:03 22.22889 94.61347 7023 ft 161 kts 269°
2026-04-15 10:04 22.22913 94.60136 7029 ft 160 kts 268°
2026-04-15 10:04 22.22934 94.58933 7028 ft 160 kts 268°
2026-04-15 10:04 22.22956 94.57737 7026 ft 159 kts 269°
2026-04-15 10:04 22.22980 94.56538 7028 ft 160 kts 269°
2026-04-15 10:05 22.23004 94.55339 7028 ft 159 kts 269°
2026-04-15 10:05 22.23026 94.54151 7025 ft 159 kts 269°
2026-04-15 10:05 22.23047 94.52958 7025 ft 159 kts 269°
2026-04-15 10:05 22.23069 94.51770 7025 ft 157 kts 269°
2026-04-15 10:06 22.23090 94.50598 7023 ft 155 kts 268°
2026-04-15 10:06 22.23109 94.49467 7021 ft 154 kts 268°
2026-04-15 10:06 22.23132 94.48295 7022 ft 155 kts 270°
2026-04-15 10:06 22.23153 94.47127 7020 ft 155 kts 269°
2026-04-15 10:07 22.23172 94.45972 7026 ft 154 kts 269°
2026-04-15 10:07 22.23190 94.44803 7023 ft 156 kts 270°
2026-04-15 10:07 22.23217 94.43634 7022 ft 154 kts 270°
2026-04-15 10:07 22.23235 94.42473 7026 ft 155 kts 271°
2026-04-15 10:08 22.23256 94.41316 7006 ft 152 kts 269°
2026-04-15 10:08 22.23281 94.40200 7019 ft 148 kts 271°
2026-04-15 10:08 22.23292 94.39088 7028 ft 152 kts 269°
2026-04-15 10:08 22.23312 94.37930 7028 ft 154 kts 270°
2026-04-15 10:09 22.23336 94.36788 7032 ft 154 kts 271°
2026-04-15 10:09 22.23354 94.35631 7034 ft 155 kts 270°
2026-04-15 10:09 22.23375 94.34468 7034 ft 155 kts 270°
2026-04-15 10:09 22.23396 94.33302 7030 ft 155 kts 271°
2026-04-15 10:10 22.23415 94.32136 7025 ft 155 kts 271°
2026-04-15 10:10 22.23435 94.30956 7031 ft 156 kts 271°
2026-04-15 10:10 22.23455 94.29789 7029 ft 156 kts 271°
2026-04-15 10:10 22.23474 94.28629 7030 ft 156 kts 270°
2026-04-15 10:11 22.23494 94.27451 7028 ft 155 kts 271°
2026-04-15 10:11 22.23516 94.26298 7035 ft 154 kts 271°
2026-04-15 10:11 22.23534 94.25131 7032 ft 156 kts 271°
2026-04-15 10:11 22.23558 94.23965 7029 ft 156 kts 272°
2026-04-15 10:12 22.23576 94.22803 7026 ft 156 kts 270°
2026-04-15 10:12 22.23588 94.21643 7026 ft 156 kts 271°
2026-04-15 10:12 22.23609 94.20464 7022 ft 156 kts 269°
2026-04-15 10:12 22.23629 94.19298 7026 ft 154 kts 271°
2026-04-15 10:13 22.23648 94.18144 7028 ft 155 kts 270°
2026-04-15 10:13 22.23665 94.16986 7025 ft 155 kts 271°
2026-04-15 10:13 22.23685 94.15826 7026 ft 154 kts 271°
2026-04-15 10:13 22.23707 94.14668 7021 ft 154 kts 271°
2026-04-15 10:14 22.23723 94.13525 7022 ft 153 kts 271°
2026-04-15 10:14 22.23740 94.12377 7021 ft 152 kts 271°
2026-04-15 10:14 22.23759 94.11233 7021 ft 152 kts 270°
2026-04-15 10:14 22.23776 94.10101 7022 ft 151 kts 271°
2026-04-15 10:15 22.23795 94.08967 7028 ft 150 kts 271°
2026-04-15 10:15 22.23812 94.07836 7028 ft 151 kts 271°
2026-04-15 10:15 22.23829 94.06701 7030 ft 152 kts 271°
2026-04-15 10:15 22.23841 94.05947 7034 ft 152 kts 271°
2026-04-15 10:16 22.23859 94.04811 7034 ft 151 kts 271°
2026-04-15 10:16 22.23883 94.03293 7034 ft 151 kts 271°
2026-04-15 10:16 22.23901 94.02175 7035 ft 151 kts 271°
2026-04-15 10:16 22.23912 94.01411 7038 ft 151 kts 271°
2026-04-15 10:17 22.23928 94.00293 7037 ft 151 kts 271°
2026-04-15 10:17 22.23946 93.99147 7040 ft 151 kts 271°
2026-04-15 10:17 22.23962 93.98021 7042 ft 149 kts 271°
2026-04-15 10:17 22.23980 93.96919 7035 ft 147 kts 271°
2026-04-15 10:18 22.23995 93.95818 7055 ft 148 kts 271°
2026-04-15 10:18 22.24011 93.94717 7059 ft 149 kts 271°
2026-04-15 10:18 22.24029 93.93577 7061 ft 149 kts 271°
2026-04-15 10:18 22.24045 93.92455 7068 ft 149 kts 271°
2026-04-15 10:19 22.24061 93.91340 7067 ft 149 kts 270°
2026-04-15 10:19 22.24078 93.90229 7070 ft 150 kts 271°
2026-04-15 10:19 22.24094 93.89097 7079 ft 152 kts 270°
2026-04-15 10:19 22.24110 93.87954 7078 ft 152 kts 270°
2026-04-15 10:20 22.24129 93.86817 7081 ft 150 kts 271°
2026-04-15 10:20 22.24143 93.85699 7094 ft 150 kts 269°
2026-04-15 10:20 22.24159 93.84549 7096 ft 153 kts 271°
2026-04-15 10:20 22.24175 93.83408 7090 ft 155 kts 271°
2026-04-15 10:21 22.24192 93.82253 7097 ft 153 kts 270°
2026-04-15 10:21 22.24206 93.81111 7102 ft 152 kts 270°
2026-04-15 10:21 22.24222 93.79960 7098 ft 154 kts 271°
2026-04-15 10:21 22.24242 93.78807 7100 ft 152 kts 271°
2026-04-15 10:22 22.24255 93.77672 7106 ft 151 kts 271°
2026-04-15 10:22 22.24269 93.76531 7178 ft 149 kts 270°
2026-04-15 10:22 22.24285 93.75428 7405 ft 144 kts 270°
2026-04-15 10:22 22.24299 93.74412 7626 ft 130 kts 270°
2026-04-15 10:23 22.24311 93.73462 7849 ft 124 kts 270°
2026-04-15 10:23 22.24321 93.72550 8082 ft 119 kts 269°
2026-04-15 10:23 22.24333 93.71665 8312 ft 116 kts 270°
2026-04-15 10:23 22.24342 93.70804 8545 ft 112 kts 270°
2026-04-15 10:24 22.24354 93.69966 8781 ft 111 kts 269°
2026-04-15 10:24 22.24360 93.69181 9002 ft 101 kts 269°
2026-04-15 10:24 22.24367 93.68441 9231 ft 96 kts 269°
2026-04-15 10:24 22.24372 93.67721 9463 ft 96 kts 269°
2026-04-15 10:25 22.24384 93.67022 9699 ft 92 kts 269°
2026-04-15 10:25 22.24393 93.66342 9922 ft 89 kts 268°
2026-04-15 10:25 22.24399 93.65724 10109 ft 78 kts 267°
2026-04-15 10:25 22.24409 93.65095 10148 ft 94 kts 270°
2026-04-15 10:26 22.24430 93.64314 10154 ft 114 kts 270°
2026-04-15 10:26 22.24448 93.63429 10172 ft 124 kts 270°
2026-04-15 10:26 22.24462 93.62439 10168 ft 138 kts 270°
2026-04-15 10:26 22.24474 93.61385 10163 ft 146 kts 270°
2026-04-15 10:27 22.24485 93.60279 10172 ft 147 kts 270°
2026-04-15 10:27 22.24500 93.59171 10170 ft 148 kts 270°
2026-04-15 10:27 22.24513 93.58058 10159 ft 151 kts 270°
2026-04-15 10:27 22.24526 93.56938 10168 ft 150 kts 270°
2026-04-15 10:28 22.24541 93.55828 10167 ft 145 kts 270°
2026-04-15 10:28 22.24552 93.54758 10175 ft 136 kts 270°
2026-04-15 10:28 22.24564 93.53726 10173 ft 138 kts 270°
2026-04-15 10:28 22.24579 93.52673 10177 ft 141 kts 270°
2026-04-15 10:29 22.24593 93.51609 10210 ft 142 kts 270°
2026-04-15 10:29 22.24602 93.50581 10369 ft 135 kts 270°
2026-04-15 10:29 22.24614 93.49573 10528 ft 129 kts 270°
2026-04-15 10:29 22.24622 93.48637 10689 ft 125 kts 270°
2026-04-15 10:30 22.24635 93.47725 10836 ft 119 kts 270°
2026-04-15 10:30 22.24646 93.46822 10995 ft 119 kts 271°
2026-04-15 10:30 22.24659 93.45945 11147 ft 118 kts 271°
2026-04-15 10:30 22.24670 93.45022 11181 ft 123 kts 270°
2026-04-15 10:31 22.24681 93.44065 11188 ft 135 kts 271°
2026-04-15 10:31 22.24693 93.43052 11188 ft 134 kts 271°
2026-04-15 10:31 22.24705 93.42034 11190 ft 137 kts 270°
2026-04-15 10:31 22.24716 93.40983 11189 ft 142 kts 271°
2026-04-15 10:32 22.24730 93.39896 11192 ft 146 kts 270°
2026-04-15 10:32 22.24743 93.38785 11190 ft 149 kts 271°
2026-04-15 10:32 22.24759 93.37670 11188 ft 147 kts 271°
2026-04-15 10:32 22.24770 93.36562 11190 ft 146 kts 270°
2026-04-15 10:33 22.24781 93.35496 11187 ft 145 kts 270°
2026-04-15 10:33 22.24792 93.34402 11189 ft 145 kts 271°
2026-04-15 10:33 22.24804 93.33298 11194 ft 148 kts 271°
2026-04-15 10:33 22.24816 93.32193 11175 ft 145 kts 272°
2026-04-15 10:34 22.24829 93.31121 11185 ft 143 kts 270°
2026-04-15 10:34 22.24840 93.30045 11179 ft 143 kts 270°
2026-04-15 10:34 22.24851 93.28976 11173 ft 142 kts 273°
2026-04-15 10:34 22.24863 93.27912 11174 ft 142 kts 271°
2026-04-15 10:35 22.24875 93.26839 11177 ft 145 kts 271°
2026-04-15 10:35 22.24885 93.25739 11175 ft 146 kts 271°
2026-04-15 10:35 22.24899 93.24624 11181 ft 150 kts 271°
2026-04-15 10:35 22.24912 93.23496 11180 ft 150 kts 271°
2026-04-15 10:36 22.24921 93.22366 11180 ft 150 kts 271°
2026-04-15 10:36 22.24934 93.21247 11175 ft 151 kts 271°
2026-04-15 10:36 22.24945 93.20122 11173 ft 150 kts 271°
2026-04-15 10:36 22.24958 93.18992 11169 ft 149 kts 271°
2026-04-15 10:37 22.24967 93.17873 11168 ft 149 kts 270°
2026-04-15 10:37 22.24979 93.16764 11168 ft 148 kts 271°
2026-04-15 10:37 22.24991 93.15655 11168 ft 148 kts 271°
2026-04-15 10:37 22.25004 93.14537 11160 ft 149 kts 271°
2026-04-15 10:38 22.25009 93.13467 11172 ft 139 kts 270°
2026-04-15 10:38 22.25017 93.12386 11160 ft 143 kts 271°
2026-04-15 10:38 22.25032 93.11326 11156 ft 144 kts 271°
2026-04-15 10:38 22.25043 93.10243 11162 ft 144 kts 272°
2026-04-15 10:39 22.25053 93.09140 11158 ft 148 kts 270°
2026-04-15 10:39 22.25064 93.08030 11162 ft 148 kts 271°
2026-04-15 10:39 22.25075 93.06912 11162 ft 149 kts 271°
2026-04-15 10:39 22.25086 93.05791 11164 ft 150 kts 271°
2026-04-15 10:40 22.25097 93.04654 11156 ft 153 kts 271°
2026-04-15 10:40 22.25106 93.03517 11150 ft 152 kts 271°
2026-04-15 10:40 22.25117 93.02397 11154 ft 147 kts 271°
2026-04-15 10:40 22.25127 93.01281 11153 ft 149 kts 271°
2026-04-15 10:41 22.25138 93.00153 11147 ft 150 kts 271°
2026-04-15 10:41 22.25148 92.99030 11148 ft 150 kts 271°
2026-04-15 10:41 22.25158 92.97898 11143 ft 150 kts 271°
2026-04-15 10:41 22.25167 92.96781 11140 ft 148 kts 271°
2026-04-15 10:42 22.25176 92.95676 11138 ft 147 kts 271°
2026-04-15 10:42 22.25187 92.94573 11139 ft 148 kts 271°
2026-04-15 10:42 22.25196 92.93474 11140 ft 149 kts 271°
2026-04-15 10:42 22.25208 92.92349 11142 ft 151 kts 271°
2026-04-15 10:43 22.25215 92.91213 11139 ft 150 kts 271°
2026-04-15 10:43 22.25224 92.90092 11138 ft 149 kts 271°
2026-04-15 10:43 22.25233 92.88968 11134 ft 149 kts 271°
2026-04-15 10:43 22.25243 92.87855 11127 ft 148 kts 271°
2026-04-15 10:44 22.25252 92.86747 11129 ft 147 kts 271°
2026-04-15 10:44 22.25261 92.85638 11125 ft 145 kts 271°
2026-04-15 10:44 22.25270 92.84562 11132 ft 146 kts 271°
2026-04-15 10:44 22.25275 92.83468 11127 ft 146 kts 271°
2026-04-15 10:45 22.25287 92.82372 11126 ft 146 kts 271°
2026-04-15 10:45 22.25297 92.81268 11127 ft 147 kts 271°
2026-04-15 10:45 22.25305 92.80162 11121 ft 147 kts 272°
2026-04-15 10:45 22.25312 92.79084 11116 ft 136 kts 270°
2026-04-15 10:46 22.25319 92.78066 11133 ft 138 kts 271°
2026-04-15 10:46 22.25329 92.77009 11134 ft 142 kts 271°
2026-04-15 10:46 22.25337 92.75943 11131 ft 145 kts 271°
2026-04-15 10:46 22.25345 92.74853 11132 ft 145 kts 271°
2026-04-15 10:47 22.25354 92.73763 11127 ft 146 kts 271°
2026-04-15 10:47 22.25361 92.72664 11130 ft 146 kts 271°
2026-04-15 10:47 22.25369 92.71566 11128 ft 146 kts 271°
2026-04-15 10:47 22.25377 92.70464 11125 ft 147 kts 272°
2026-04-15 10:48 22.25386 92.69371 11128 ft 148 kts 271°
2026-04-15 10:48 22.25394 92.68245 11131 ft 148 kts 271°
2026-04-15 10:48 22.25402 92.67143 11128 ft 148 kts 271°
2026-04-15 10:48 22.25409 92.66036 11127 ft 148 kts 271°
2026-04-15 10:49 22.25416 92.64926 11126 ft 147 kts 271°
2026-04-15 10:49 22.25424 92.63821 11127 ft 147 kts 271°
2026-04-15 10:49 22.25431 92.62713 11125 ft 147 kts 272°
2026-04-15 10:49 22.25439 92.61609 11127 ft 147 kts 271°
2026-04-15 10:50 22.25446 92.60512 11127 ft 148 kts 271°
2026-04-15 10:50 22.25454 92.59401 11126 ft 148 kts 271°
2026-04-15 10:50 22.25461 92.58271 11122 ft 148 kts 271°
2026-04-15 10:50 22.25468 92.57174 11124 ft 148 kts 271°
2026-04-15 10:51 22.25476 92.56060 11124 ft 148 kts 270°
2026-04-15 10:51 22.25483 92.54960 11139 ft 148 kts 270°
2026-04-15 10:51 22.25489 92.53825 11113 ft 151 kts 271°
2026-04-15 10:51 22.25496 92.52687 11114 ft 151 kts 271°
2026-04-15 10:52 22.25504 92.51552 11114 ft 151 kts 271°
2026-04-15 10:52 22.25509 92.50415 11114 ft 150 kts 271°
2026-04-15 10:52 22.25516 92.49283 11116 ft 151 kts 271°
2026-04-15 10:52 22.25523 92.48171 11116 ft 150 kts 271°
2026-04-15 10:53 22.25530 92.47048 11114 ft 149 kts 271°
2026-04-15 10:53 22.25536 92.45936 11111 ft 149 kts 271°
2026-04-15 10:53 22.25542 92.44814 11112 ft 149 kts 271°
2026-04-15 10:53 22.25548 92.43692 11110 ft 149 kts 271°
2026-04-15 10:54 22.25555 92.42577 11112 ft 149 kts 271°
2026-04-15 10:54 22.25562 92.41474 11111 ft 149 kts 272°
2026-04-15 10:54 22.25567 92.40355 11111 ft 149 kts 272°
2026-04-15 10:54 22.25572 92.39240 11109 ft 149 kts 271°
2026-04-15 10:55 22.25577 92.38127 11108 ft 148 kts 271°
2026-04-15 10:55 22.25583 92.37020 11113 ft 147 kts 271°
2026-04-15 10:55 22.25590 92.35916 11114 ft 147 kts 271°
2026-04-15 10:55 22.25595 92.34826 11112 ft 147 kts 271°
2026-04-15 10:56 22.25601 92.33707 11113 ft 147 kts 271°
2026-04-15 10:56 22.25606 92.32603 11113 ft 147 kts 271°
2026-04-15 10:56 22.25612 92.31502 11108 ft 147 kts 271°
2026-04-15 10:56 22.25617 92.30410 11108 ft 147 kts 271°
2026-04-15 10:57 22.25622 92.29304 11110 ft 147 kts 271°
2026-04-15 10:57 22.25632 92.27111 11109 ft 146 kts 271°
2026-04-15 10:57 22.25637 92.26015 11108 ft 146 kts 271°
2026-04-15 10:58 22.25642 92.24919 11109 ft 146 kts 271°
2026-04-15 10:58 22.25647 92.23819 11110 ft 146 kts 271°
2026-04-15 10:58 22.25652 92.22724 11108 ft 146 kts 271°
2026-04-15 10:58 22.25656 92.21627 11111 ft 146 kts 271°
2026-04-15 10:59 22.25661 92.20532 11112 ft 146 kts 271°
2026-04-15 10:59 22.25665 92.19432 11113 ft 146 kts 271°
2026-04-15 10:59 22.25670 92.18333 11110 ft 147 kts 271°
2026-04-15 10:59 22.25674 92.17234 11113 ft 147 kts 271°
2026-04-15 11:00 22.25678 92.16146 11113 ft 147 kts 271°
2026-04-15 11:00 22.25683 92.15040 11111 ft 147 kts 271°
2026-04-15 11:00 22.25687 92.13938 11111 ft 146 kts 271°
2026-04-15 11:00 22.25691 92.12836 11111 ft 147 kts 271°
2026-04-15 11:01 22.25695 92.11732 11111 ft 147 kts 271°
2026-04-15 11:01 22.25699 92.10623 11111 ft 147 kts 271°
2026-04-15 11:01 22.25702 92.09531 11110 ft 146 kts 271°
2026-04-15 11:01 22.25706 92.08433 11110 ft 146 kts 272°
2026-04-15 11:02 22.25710 92.07334 11112 ft 146 kts 271°
2026-04-15 11:02 22.25714 92.06238 11113 ft 146 kts 272°
2026-04-15 11:02 22.25716 92.05515 11122 ft 147 kts 271°
2026-04-15 11:02 22.25721 92.04028 11127 ft 148 kts 271°
2026-04-15 11:03 22.25723 92.03288 11125 ft 148 kts 271°
2026-04-15 11:03 22.25727 92.02183 11127 ft 149 kts 271°
2026-04-15 11:03 22.25731 92.01049 11124 ft 149 kts 272°
2026-04-15 11:03 22.25733 91.99926 11120 ft 149 kts 272°
2026-04-15 11:04 22.25736 91.98820 11120 ft 149 kts 272°
2026-04-15 11:04 22.25739 91.97707 11125 ft 149 kts 272°
2026-04-15 11:04 22.25742 91.96591 11123 ft 149 kts 272°
2026-04-15 11:04 22.25746 91.95465 11124 ft 149 kts 272°
2026-04-15 11:05 22.25748 91.94351 11122 ft 148 kts 272°
2026-04-15 11:05 22.25751 91.93249 11123 ft 148 kts 272°
2026-04-15 11:05 22.25754 91.92127 11120 ft 147 kts 272°
2026-04-15 11:05 22.25759 91.91024 11120 ft 147 kts 272°
2026-04-15 11:06 22.25759 91.89927 11121 ft 148 kts 272°
2026-04-15 11:06 22.25761 91.88821 11123 ft 147 kts 272°
2026-04-15 11:06 22.25762 91.87722 11121 ft 147 kts 272°
2026-04-15 11:06 22.25767 91.86615 11119 ft 147 kts 272°
2026-04-15 11:07 22.25769 91.85526 11122 ft 147 kts 272°
2026-04-15 11:07 22.25771 91.84422 11122 ft 147 kts 272°
2026-04-15 11:07 22.25772 91.83319 11122 ft 146 kts 272°
2026-04-15 11:07 22.25828 91.82222 11123 ft 145 kts 279°
2026-04-15 11:08 22.25963 91.81138 11125 ft 145 kts 278°
2026-04-15 11:08 22.26088 91.80060 11119 ft 146 kts 278°
2026-04-15 11:08 22.26213 91.78976 11123 ft 145 kts 278°
2026-04-15 11:08 22.26338 91.77904 11124 ft 145 kts 278°
2026-04-15 11:09 22.26463 91.76818 11118 ft 145 kts 278°
2026-04-15 11:09 22.26589 91.75739 11121 ft 144 kts 278°
2026-04-15 11:09 22.26713 91.74669 11120 ft 144 kts 279°
2026-04-15 11:09 22.26835 91.73613 11119 ft 143 kts 278°
2026-04-15 11:10 22.26959 91.72547 11120 ft 143 kts 279°
2026-04-15 11:10 22.27082 91.71483 11117 ft 143 kts 279°
2026-04-15 11:10 22.27205 91.70417 11118 ft 143 kts 279°
2026-04-15 11:10 22.27329 91.69352 11120 ft 142 kts 279°
2026-04-15 11:11 22.27451 91.68292 11120 ft 142 kts 279°
2026-04-15 11:11 22.27573 91.67232 11117 ft 142 kts 279°
2026-04-15 11:11 22.27696 91.66173 11119 ft 142 kts 279°
2026-04-15 11:11 22.27817 91.65117 11116 ft 142 kts 279°
2026-04-15 11:12 22.27940 91.64051 11117 ft 142 kts 279°
2026-04-15 11:12 22.28062 91.62996 11115 ft 142 kts 279°
2026-04-15 11:12 22.28184 91.61936 11118 ft 142 kts 279°
2026-04-15 11:12 22.28306 91.60870 11113 ft 142 kts 279°
2026-04-15 11:13 22.28428 91.59810 11116 ft 142 kts 279°
2026-04-15 11:13 22.28551 91.58747 11113 ft 142 kts 279°
2026-04-15 11:13 22.28673 91.57683 11114 ft 143 kts 279°
2026-04-15 11:13 22.28792 91.56643 11115 ft 143 kts 279°
2026-04-15 11:14 22.28915 91.55573 11114 ft 143 kts 279°
2026-04-15 11:14 22.29037 91.54515 11111 ft 142 kts 279°
2026-04-15 11:14 22.29159 91.53449 11115 ft 142 kts 279°
2026-04-15 11:14 22.29281 91.52385 11112 ft 142 kts 279°
2026-04-15 11:15 22.29402 91.51331 11110 ft 142 kts 279°
2026-04-15 11:15 22.29523 91.50266 11111 ft 142 kts 279°
2026-04-15 11:15 22.29645 91.49203 11108 ft 142 kts 279°
2026-04-15 11:15 22.29765 91.48157 11109 ft 142 kts 279°
2026-04-15 11:16 22.29886 91.47091 11108 ft 142 kts 279°
2026-04-15 11:16 22.30006 91.46039 11108 ft 142 kts 279°
2026-04-15 11:16 22.30127 91.44982 11106 ft 142 kts 279°
2026-04-15 11:16 22.30248 91.43923 11105 ft 142 kts 279°
2026-04-15 11:17 22.30368 91.42867 11107 ft 142 kts 279°
2026-04-15 11:17 22.30488 91.41808 11103 ft 142 kts 279°
2026-04-15 11:17 22.30609 91.40750 11105 ft 142 kts 279°
2026-04-15 11:17 22.30729 91.39694 11103 ft 142 kts 279°
2026-04-15 11:18 22.30850 91.38635 11102 ft 142 kts 279°
2026-04-15 11:18 22.30969 91.37590 11101 ft 141 kts 279°
2026-04-15 11:18 22.31102 91.36539 11103 ft 141 kts 279°
2026-04-15 11:18 22.31235 91.35485 11102 ft 142 kts 279°
2026-04-15 11:19 22.31366 91.34431 11101 ft 142 kts 279°
2026-04-15 11:19 22.31497 91.33374 11099 ft 142 kts 279°
2026-04-15 11:19 22.31629 91.32315 11103 ft 142 kts 279°
2026-04-15 11:19 22.31758 91.31275 11101 ft 142 kts 279°
2026-04-15 11:20 22.31890 91.30214 11098 ft 142 kts 279°
2026-04-15 11:20 22.32021 91.29158 11096 ft 141 kts 279°
2026-04-15 11:20 22.32153 91.28089 11097 ft 141 kts 279°
2026-04-15 11:20 22.32282 91.27054 11096 ft 141 kts 279°
2026-04-15 11:21 22.32411 91.26006 11096 ft 141 kts 279°
2026-04-15 11:21 22.32541 91.24954 11097 ft 141 kts 279°
2026-04-15 11:21 22.32671 91.23906 11094 ft 141 kts 279°
2026-04-15 11:21 22.32801 91.22854 11094 ft 141 kts 279°
2026-04-15 11:22 22.32931 91.21805 11096 ft 141 kts 280°
2026-04-15 11:22 22.33059 91.20762 11092 ft 141 kts 279°
2026-04-15 11:22 22.33189 91.19711 11095 ft 141 kts 279°
2026-04-15 11:22 22.33319 91.18660 11096 ft 141 kts 279°
2026-04-15 11:23 22.33446 91.17628 11094 ft 140 kts 279°
2026-04-15 11:23 22.33576 91.16568 11091 ft 140 kts 279°
2026-04-15 11:23 22.33704 91.15535 11091 ft 141 kts 279°
2026-04-15 11:23 22.33833 91.14486 11091 ft 141 kts 279°
2026-04-15 11:24 22.33961 91.13437 11092 ft 141 kts 279°
2026-04-15 11:24 22.34090 91.12391 11089 ft 141 kts 279°
2026-04-15 11:24 22.34219 91.11343 11093 ft 141 kts 279°
2026-04-15 11:24 22.34348 91.10295 11092 ft 141 kts 279°
2026-04-15 11:25 22.34477 91.09243 11092 ft 141 kts 279°
2026-04-15 11:25 22.34605 91.08195 11091 ft 141 kts 279°
2026-04-15 11:25 22.34734 91.07147 11090 ft 141 kts 280°
2026-04-15 11:25 22.34862 91.06100 11088 ft 141 kts 280°
2026-04-15 11:26 22.34991 91.05050 11089 ft 141 kts 279°
2026-04-15 11:26 22.35119 91.04001 11089 ft 141 kts 279°
2026-04-15 11:26 22.35246 91.02967 11087 ft 141 kts 279°
2026-04-15 11:26 22.35374 91.01918 11085 ft 141 kts 279°
2026-04-15 11:27 22.35502 91.00865 11086 ft 141 kts 280°
2026-04-15 11:27 22.35630 90.99819 11083 ft 141 kts 280°
2026-04-15 11:27 22.35758 90.98772 11088 ft 140 kts 280°
2026-04-15 11:27 22.35885 90.97729 11088 ft 140 kts 280°
2026-04-15 11:28 22.36012 90.96686 11088 ft 140 kts 280°
2026-04-15 11:28 22.36140 90.95637 11083 ft 140 kts 280°
2026-04-15 11:28 22.36268 90.94596 11085 ft 140 kts 280°
2026-04-15 11:28 22.36395 90.93546 11086 ft 140 kts 280°
2026-04-15 11:29 22.36522 90.92502 11086 ft 140 kts 280°
2026-04-15 11:29 22.36648 90.91470 11085 ft 140 kts 280°
2026-04-15 11:29 22.36774 90.90429 11085 ft 140 kts 280°
2026-04-15 11:29 22.36900 90.89388 11083 ft 139 kts 280°
2026-04-15 11:30 22.37027 90.88347 11084 ft 140 kts 280°
2026-04-15 11:30 22.37152 90.87317 11084 ft 140 kts 280°
2026-04-15 11:30 22.37279 90.86264 11088 ft 140 kts 280°
2026-04-15 11:30 22.37404 90.85232 11086 ft 140 kts 280°
2026-04-15 11:31 22.37531 90.84193 11086 ft 140 kts 280°
2026-04-15 11:31 22.37657 90.83153 11086 ft 139 kts 280°
2026-04-15 11:31 22.37782 90.82115 11083 ft 139 kts 280°
2026-04-15 11:31 22.37907 90.81077 11084 ft 139 kts 280°
2026-04-15 11:32 22.38033 90.80043 11083 ft 139 kts 280°
2026-04-15 11:32 22.38157 90.79015 11084 ft 139 kts 280°
2026-04-15 11:32 22.38280 90.77992 11084 ft 139 kts 280°
2026-04-15 11:32 22.38406 90.76953 11084 ft 139 kts 280°
2026-04-15 11:33 22.38531 90.75912 11084 ft 139 kts 280°
2026-04-15 11:33 22.38656 90.74875 11082 ft 139 kts 280°
2026-04-15 11:33 22.38779 90.73854 11085 ft 139 kts 280°